Weather in Marmara

Turkey     40°35′25″N   27°33′48″E
temp.,
°C
wind,
m/s
gust,
m/s
humid.,
%
clouds,
%
prec.,
mm/h
press.,
hPa
HPBL,
m
17 april, sat
sat1700:00+10ene8986100 1.9 1019402
03:00+11ene81086100 1.9 1018537
06:00+11ene91181100 0.0 1017607
09:00+11ene101181100 0.0 1017646
12:00+11ene101183100 0.3 1016650
15:00+11ne91082100 0.3 1015585
18:00+12ne91183100 0.0 1014417
21:00+11ne101087100 0.0 1013427
18 april, sun
sun1800:00+11ne7789100 0.0 1015486
03:00+11ene669199 0.2 1014479
06:00+11ene6591100 0.1 1014327
09:00+11ene5590100 0.1 1014342
12:00+11ne4390100 0.0 1014189
15:00+12ne3390100 0.0 1014125
18:00+12ne5587100 0.0 101461
21:00+14ne4488100 0.0 101429
19 april, mon
mon1900:00+13e2292100 0.1 101424
03:00+13nne4495100 2.1 101369
06:00+13nne2297100 0.9 101137
09:00+13ne3398100 1.1 101162
12:00+13wnw2298100 2.7 101025
15:00+14s2391100 3.6 100821
18:00+14w3387100 1.1 100639
21:00+14s5677100 1.6 100758
20 april, tue
tue2000:00+12wsw4687100 0.4 1007230
03:00+12sw478525 0.6 1008311
06:00+11nw7782100 0.1 1010594
09:00+10wsw4480100 0.3 1013344
12:00+12ssw01711 0.0 101494
15:00+13nne22675 0.0 1013111
18:00+15wnw35731 0.0 101383
21:00+13w34785 0.0 101549
21 april, wed
wed2100:00+13ssw44765 0.0 101669
03:00+12sw44753 0.0 1016104
06:00+12ssw33665 0.0 1016120
09:00+12sse126113 0.0 1018108
12:00+13e116498 0.0 101953
15:00+14nne22555 0.3 101976
18:00+15se11624 0.0 101926
21:00+15w33700 0.0 102017